Millington, TN

11:07 AM CDT on August 31, 2016 (GMT -0500)
Millington Municipal

Weather History for KNQA - September, 2013

Change the Weather History Date:

Wednesday, September 11, 2013

  Actual Average Record
Temperature  
Mean Temperature 82 °F -  
Max Temperature 93 °F 85 °F 93 °F (2000)
Min Temperature 71 °F 64 °F 57 °F (2012)
Cooling Degree Days 17    
Growing Degree Days 32 (Base 50)    
Moisture  
Dew Point 73 °F    
Average Humidity 82    
Maximum Humidity 100    
Minimum Humidity 49    
Precipitation  
Precipitation 0.00 in - - ()
Sea Level Pressure  
Sea Level Pressure 30.12 in    
Wind  
Wind Speed 0 mph (SSE)    
Max Wind Speed 6 mph    
Max Gust Speed -    
Visibility 10 miles    
Events      
Averages and records for this station are not official NWS values.
T = Trace of Precipitation, MM = Missing Value Source: NWS Daily Summary

Daily Weather History Graph

Daily Weather History Graph

Search for Another Location

Airport or City:

Trip Planner

Search our weather history database for the weather conditions in past years. The results will help you decide how hot, cold, wet, or windy it might be!

Date:

Astronomy

Sep. 11, 2013 Rise Set
Actual Time 6:39 AM CDT 7:11 PM CDT
Civil Twilight 6:13 AM CDT 7:37 PM CDT
Nautical Twilight 5:43 AM CDT 8:07 PM CDT
Astronomical Twilight 5:13 AM CDT 8:38 PM CDT
Moon 12:53 PM CDT (9/11) 11:21 PM CDT (9/11)
Length of Visible Light 13h 23m
Length of Day
12h 32m
Waxing Crescent, 39% of the Moon is Illuminated
Sep 11
Waxing Crescent
Sep 12
First Quarter
Sep 19
Full
Sep 26
Last Quarter
Oct 4
New

Hourly Weather History & Observations

Time (CDT) Temp. Heat Index Dew Point Humidity Pressure Visibility Wind Dir Wind Speed Gust Speed Precip Events Conditions
12:55 AM 75.2 °F - 71.6 °F 89% 30.12 in 10.0 mi Calm Calm - N/A   Mostly Cloudy
1:55 AM 73.4 °F - 71.6 °F 94% 30.12 in 10.0 mi Calm Calm - N/A   Scattered Clouds
2:55 AM 73.4 °F - 71.6 °F 94% 30.12 in 10.0 mi Calm Calm - N/A   Clear
3:15 AM 73.4 °F - 71.6 °F 94% 30.13 in 10.0 mi Calm Calm - N/A   Clear
3:35 AM 73.4 °F - 71.6 °F 94% 30.13 in 9.0 mi Calm Calm - N/A   Clear
3:55 AM 73.4 °F - 71.6 °F 94% 30.13 in 10.0 mi Calm Calm - N/A   Clear
4:15 AM 73.4 °F - 71.6 °F 94% 30.13 in 10.0 mi Calm Calm - N/A   Clear
4:35 AM 73.4 °F - 71.6 °F 94% 30.14 in 9.0 mi Calm Calm - N/A   Clear
4:55 AM 73.4 °F - 71.6 °F 94% 30.14 in 8.0 mi Calm Calm - N/A   Clear
5:15 AM 71.6 °F - 71.6 °F 100% 30.14 in 7.0 mi Calm Calm - N/A   Clear
5:35 AM 71.6 °F - 71.6 °F 100% 30.14 in 10.0 mi Calm Calm - N/A   Partly Cloudy
5:55 AM 73.4 °F - 71.6 °F 94% 30.14 in 10.0 mi Calm Calm - N/A   Partly Cloudy
6:55 AM 71.6 °F - 71.6 °F 100% 30.16 in 10.0 mi Calm Calm - N/A   Partly Cloudy
7:55 AM 75.2 °F - 73.4 °F 94% 30.17 in 10.0 mi Calm Calm - N/A   Mostly Cloudy
8:55 AM 78.8 °F - 73.4 °F 83% 30.17 in 10.0 mi Calm Calm - N/A   Mostly Cloudy
9:55 AM 82.4 °F 89.5 °F 75.2 °F 79% 30.16 in 10.0 mi Calm Calm - N/A   Mostly Cloudy
10:55 AM 84.2 °F 92.3 °F 75.2 °F 74% 30.16 in 10.0 mi SSE 3.5 mph - N/A   Mostly Cloudy
11:55 AM 89.6 °F 99.8 °F 75.2 °F 62% 30.16 in 10.0 mi Calm Calm - N/A   Mostly Cloudy
12:55 PM 91.4 °F 100.1 °F 73.4 °F 55% 30.15 in 9.0 mi Calm Calm - N/A   Scattered Clouds
1:55 PM 93.2 °F 102.4 °F 73.4 °F 52% 30.12 in 10.0 mi South 4.6 mph - N/A   Scattered Clouds
2:55 PM 93.2 °F 102.4 °F 73.4 °F 52% 30.10 in 10.0 mi South 5.8 mph - N/A   Scattered Clouds
3:55 PM 93.2 °F 102.4 °F 73.4 °F 52% 30.08 in 10.0 mi SE 5.8 mph - N/A   Scattered Clouds
4:55 PM 93.2 °F 100.5 °F 71.6 °F 49% 30.08 in 10.0 mi SE 3.5 mph - N/A   Scattered Clouds
5:55 PM 87.8 °F 93.8 °F 71.6 °F 58% 30.07 in 10.0 mi Calm Calm - N/A   Scattered Clouds
6:55 PM 82.4 °F 89.5 °F 75.2 °F 79% 30.08 in 10.0 mi Calm Calm - N/A   Scattered Clouds
7:55 PM 82.4 °F 89.5 °F 75.2 °F 79% 30.08 in 10.0 mi Calm Calm - N/A   Scattered Clouds
8:55 PM 80.6 °F 86.2 °F 75.2 °F 84% 30.09 in 10.0 mi Calm Calm - N/A   Scattered Clouds
9:55 PM 80.6 °F 85.4 °F 73.4 °F 79% 30.09 in 10.0 mi Calm Calm - N/A   Scattered Clouds
10:55 PM 77.0 °F - 73.4 °F 89% 30.09 in 10.0 mi Calm Calm - N/A   Scattered Clouds
11:55 PM 75.2 °F - 73.4 °F 94% 30.08 in 10.0 mi Calm Calm - N/A   Clear